Location: Monteux
(44.0348°N, 4.9972°E)
Time: 17:20:34
(UTC+00:00)

Cosmos 2297 - Pass Details

Date: 30 November 2020
Orbit: 835 x 859 km, 71.0° (Epoch: 17 January)

Event Time Altitude Azimuth Distance (km) Brightness Sun altitude
Rises 17:00:08 0° 333° (NNW) 3,413 6.9 -10.0°
Reaches altitude 10° 17:02:35 10° 333° (NNW) 2,478 6.2 -10.5°
Maximum altitude 17:08:17 82° 247° (WSW) 864 3.8 -11.4°
Drops below altitude 10° 17:13:59 10° 160° (SSE) 2,478 6.1 -12.4°
Sets 17:16:26 0° 160° (SSE) 3,413 6.8 -12.8°
